Location: Alsip
(41.6689°N, 87.7387°W)
Time: 14:23:19
(UTC+00:00)

COSMOS 2406 - Pass Details

Date: 14 July 2020
Orbit: 844 x 863 km, 71.0° (Epoch: 04 August)

Event Time Altitude Azimuth Distance (km) Brightness Sun altitude
Exits shadow 07:37:51 49° 222° (SW) 1,103 3.4 -22.6°
Maximum altitude 07:39:27 76° 294° (WNW) 893 3.2 -22.4°
Drops below altitude 10° 07:45:14 10° 21° (NNE) 2,508 6.8 -22.0°
Sets 07:47:42 0° 23° (NNE) 3,447 7.9 -21.7°
